Weather reports worldwide

Advertisment
Guernsey, United Kingdom (3894): temperature & dewpoint: 11.08.2018 00:00:00 - 17.08.2018 00:00:00 (BST)Guernsey, United Kingdom (3894): temperature -20cm & temperature -100cm: 11.08.2018 00:00:00 - 17.08.2018 00:00:00 (BST)Guernsey, United Kingdom (3894): wind speed & gusts: 11.08.2018 00:00:00 - 17.08.2018 00:00:00 (BST)Guernsey, United Kingdom (3894): wind direction: 11.08.2018 00:00:00 - 17.08.2018 00:00:00 (BST)Guernsey, United Kingdom (3894): reduced air pressure: 11.08.2018 00:00:00 - 17.08.2018 00:00:00 (BST)Guernsey, United Kingdom (3894): visibility: 11.08.2018 00:00:00 - 17.08.2018 00:00:00 (BST)Guernsey, United Kingdom (3894): precipitation: 11.08.2018 00:00:00 - 17.08.2018 00:00:00 (BST)
Date & Time tt [°C] td [°C] tt -20cm [°C] tt -100cm [°C] ff [km/h] ff [kn] fx [km/h] fx [kn] dd ppp [hPa] vv [km] rr [mm]
17.08.2018 00:00:00 14,8 12,5 - - 18 10 - - NW 1019,4 10 -
16.08.2018 23:00:00 14,8 12,1 - - 15 8 - - WNW 1019,0 10 -
16.08.2018 22:00:00 14,8 12,4 - - 13 7 - - WNW 1018,5 10 -
16.08.2018 21:00:00 14,9 13,4 - - 13 7 - - WNW 1018,0 10 -
16.08.2018 20:00:00 16,0 13,1 - - 16 9 - - WNW 1017,5 10 -
16.08.2018 19:00:00 17,1 13,3 - - 18 10 - - WNW 1017,1 10 -
16.08.2018 18:00:00 17,5 13,6 - - 22 12 - - WNW 1016,9 10 -
16.08.2018 17:00:00 17,0 15,7 - - 18 10 - - W 1016,7 10 -
16.08.2018 16:00:00 16,3 15,6 - - 15 8 - - W 1016,6 10 -
16.08.2018 15:00:00 15,7 15,7 - - 11 6 - - W 1016,5 10 -
16.08.2018 14:00:00 15,4 15,4 - - 9 5 - - WNW 1016,0 10 -
16.08.2018 13:00:00 15,3 15,3 - - 18 10 - - WNW 1016,1 6 -
16.08.2018 12:00:00 16,1 16,1 - - 18 10 - - W 1015,9 4,5 -
16.08.2018 11:00:00 16,3 16,3 - - 24 13 48 26 W 1015,7 2,5 -
16.08.2018 10:00:00 16,5 16,5 19,0 17,7 24 13 - - SW 1015,5 0,3 -
16.08.2018 09:00:00 17,1 16,2 - - 21 11 - - SW 1015,4 10 -
16.08.2018 08:00:00 17,2 15,9 - - 18 10 - - SSW 1015,4 10 -
16.08.2018 07:00:00 17,0 15,8 - - 18 10 - - SSW 1015,9 10 0,0
16.08.2018 06:00:00 16,8 15,7 - - 21 11 - - SSW 1015,9 10 -
16.08.2018 05:00:00 16,9 15,6 - - 21 11 - - SSW 1016,0 10 -
16.08.2018 04:00:00 16,9 15,9 - - 18 10 - - SSW 1016,7 10 -
16.08.2018 03:00:00 17,1 15,5 - - 16 9 - - SSW 1017,3 10 -
16.08.2018 02:00:00 17,1 15,7 - - 18 10 - - SW 1017,7 10 -
16.08.2018 01:00:00 17,2 16,2 - - 22 12 - - WSW 1018,2 10 0,0
16.08.2018 00:00:00 16,8 16,4 - - 21 11 - - WSW 1018,4 10 -
15.08.2018 23:00:00 16,7 16,4 - - 21 11 - - WSW 1018,7 10 -
15.08.2018 22:00:00 16,8 16,5 - - 21 11 - - WSW 1019,4 10 -
15.08.2018 21:00:00 16,9 16,4 - - 18 10 - - WSW 1019,2 10 -
15.08.2018 20:00:00 17,4 16,2 - - 21 11 - - WSW 1019,2 10 -
15.08.2018 19:00:00 18,3 16,3 - - 21 11 - - WSW 1019,3 10 -
15.08.2018 18:00:00 18,7 16,2 - - 24 13 - - WSW 1019,7 10 -
15.08.2018 17:00:00 18,3 15,9 - - 21 11 - - SW 1020,2 10 -
15.08.2018 16:00:00 19,5 15,4 - - 18 10 - - SW 1020,4 10 -
15.08.2018 15:00:00 19,6 15,8 - - 22 12 - - SW 1020,8 10 -
15.08.2018 14:00:00 19,0 16,1 - - 26 14 - - WSW 1021,1 10 -
15.08.2018 13:00:00 19,0 17,2 - - 22 12 - - SW 1021,3 10 -
15.08.2018 12:00:00 18,3 17,1 - - 18 10 - - WSW 1021,7 8 -
15.08.2018 11:00:00 18,2 17,3 - - 18 10 - - WSW 1021,7 7 -
15.08.2018 10:00:00 17,8 16,8 19,0 17,7 16 9 - - WSW 1021,5 9 -
15.08.2018 09:00:00 17,2 16,8 - - 15 8 - - W 1021,5 4,5 -
15.08.2018 08:00:00 16,8 16,8 - - 16 9 - - W 1021,4 8 -
15.08.2018 07:00:00 16,7 16,7 - - 21 11 - - W 1021,0 1,6 -
15.08.2018 06:00:00 16,5 16,5 - - 16 9 - - WSW 1020,8 3,0 -
15.08.2018 05:00:00 16,8 16,7 - - 18 10 - - WSW 1020,9 4,0 -
15.08.2018 04:00:00 16,8 16,6 - - 21 11 - - WSW 1020,9 10 -
15.08.2018 03:00:00 16,8 16,4 - - 16 9 - - WSW 1021,1 10 -
15.08.2018 02:00:00 16,9 15,8 - - 16 9 - - W 1021,3 10 -
15.08.2018 01:00:00 16,9 15,6 - - 18 10 - - WSW 1021,7 10 -
15.08.2018 00:00:00 17,2 14,8 - - 16 9 - - W 1021,9 10 -
14.08.2018 23:00:00 17,0 14,3 - - 18 10 - - W 1021,9 10 -
14.08.2018 22:00:00 16,7 15,0 - - 21 11 - - W 1021,8 10 -
14.08.2018 21:00:00 16,8 16,4 - - 18 10 - - W 1021,5 10 -
14.08.2018 20:00:00 17,1 16,4 - - 24 13 - - W 1021,0 10 -
14.08.2018 19:00:00 17,7 16,4 - - 22 12 - - W 1020,6 10 -
14.08.2018 18:00:00 18,4 17,1 - - 22 12 - - W 1020,7 10 -
14.08.2018 17:00:00 18,8 17,3 - - 22 12 - - W 1021,0 10 -
14.08.2018 16:00:00 19,5 16,7 - - 22 12 - - W 1020,9 10 -
14.08.2018 15:00:00 19,4 16,9 - - 21 11 - - W 1020,9 10 -
14.08.2018 14:00:00 19,0 16,1 - - 18 10 - - W 1020,6 10 -
14.08.2018 13:00:00 17,0 16,8 - - 16 9 - - WSW 1020,5 3,0 -
14.08.2018 12:00:00 19,6 16,7 - - 22 12 - - WSW 1020,1 10 -
14.08.2018 11:00:00 18,9 16,2 - - 21 11 - - WSW 1019,8 10 -
14.08.2018 10:00:00 18,3 15,8 18,7 17,7 21 11 - - W 1019,4 10 -
14.08.2018 09:00:00 17,0 16,3 - - 18 10 - - W 1019,1 10 -
14.08.2018 08:00:00 16,4 16,2 - - 15 8 - - W 1018,8 10 -
14.08.2018 07:00:00 16,0 15,8 - - 15 8 - - W 1018,3 10 0,0
14.08.2018 06:00:00 15,7 15,5 - - 15 8 - - WNW 1017,6 10 -
14.08.2018 05:00:00 15,5 15,3 - - 8 4 - - WNW 1017,3 10 -
14.08.2018 04:00:00 15,7 15,5 - - 15 8 - - WNW 1016,9 10 -
14.08.2018 03:00:00 15,6 15,4 - - 13 7 - - WNW 1016,3 10 -
14.08.2018 02:00:00 15,6 15,1 - - 13 7 - - WNW 1016,4 10 -
14.08.2018 01:00:00 15,7 14,9 - - 13 7 - - WNW 1015,9 10 0,0
14.08.2018 00:00:00 16,0 15,5 - - 13 7 - - WNW 1015,3 10 -
13.08.2018 23:00:00 16,3 15,9 - - 16 9 - - WNW 1014,8 10 -
13.08.2018 22:00:00 16,3 16,0 - - 18 10 - - W 1014,6 10 -
13.08.2018 21:00:00 16,5 16,0 - - 18 10 - - W 1014,0 10 -
13.08.2018 20:00:00 17,0 16,0 - - 21 11 - - W - 10 -
13.08.2018 19:00:00 18,1 15,7 - - 22 12 - - W 1012,7 10 0,0
13.08.2018 18:00:00 18,2 15,5 - - 26 14 - - W 1012,6 10 -
13.08.2018 17:00:00 19,3 15,4 - - 28 15 - - W 1012,0 10 -
13.08.2018 16:00:00 18,9 15,1 - - 28 15 - - W 1011,7 10 -
13.08.2018 15:00:00 19,2 15,1 - - 24 13 - - W 1011,8 10 -
13.08.2018 14:00:00 18,9 15,9 - - 26 14 - - W 1011,7 10 -
13.08.2018 13:00:00 18,6 15,8 - - 24 13 - - W 1011,1 10 0,0
13.08.2018 12:00:00 18,1 16,0 - - 24 13 - - W 1011,0 10 -
13.08.2018 11:00:00 17,4 15,8 - - 26 14 - - W 1010,6 10 -
13.08.2018 10:00:00 17,7 16,5 18,2 17,7 21 11 - - W 1010,0 10 -
13.08.2018 09:00:00 16,7 16,3 - - 16 9 - - W 1009,7 10 -
13.08.2018 08:00:00 16,4 16,2 - - 18 10 - - W 1009,0 10 -
13.08.2018 07:00:00 15,9 15,9 - - 18 10 - - W 1008,3 10 -
13.08.2018 06:00:00 15,8 15,7 - - 18 10 - - W 1007,9 10 -
13.08.2018 05:00:00 15,5 15,5 - - 22 12 - - W 1007,6 10 -
13.08.2018 04:00:00 15,5 15,5 - - 18 10 - - W 1007,5 10 -
13.08.2018 03:00:00 15,3 15,3 - - 22 12 - - WSW 1007,3 5 -
13.08.2018 02:00:00 15,7 15,7 - - 16 9 - - SW 1007,4 3,0 -
13.08.2018 01:00:00 15,9 15,6 - - 22 12 - - WSW 1007,8 10 -
13.08.2018 00:00:00 15,5 15,0 - - 18 10 - - WSW 1008,0 10 -
12.08.2018 23:00:00 15,7 15,5 - - 21 11 - - WSW 1008,2 10 -
12.08.2018 22:00:00 16,1 15,4 - - 24 13 - - WSW 1008,4 10 -
12.08.2018 21:00:00 16,1 15,4 - - 16 9 - - WSW 1008,2 10 -
12.08.2018 20:00:00 16,5 15,5 - - 21 11 - - WSW 1007,9 10 -
12.08.2018 19:00:00 16,9 16,3 - - 24 13 - - WSW 1008,0 10 -
12.08.2018 18:00:00 18,0 17,5 - - 16 9 - - WSW 1008,1 10 -
12.08.2018 17:00:00 17,5 17,5 - - 13 7 - - SW 1008,4 10 -
12.08.2018 16:00:00 17,7 17,6 - - 18 10 - - S 1008,7 10 -
12.08.2018 15:00:00 16,9 16,8 - - 22 12 - - SSE 1009,4 3,5 -
12.08.2018 14:00:00 16,7 16,6 - - 26 14 - - SSE 1009,7 5 -
12.08.2018 13:00:00 17,1 16,8 - - 24 13 - - SSE 1010,0 10 -
12.08.2018 12:00:00 16,6 16,3 - - 18 10 - - SSE 1010,8 10 -
12.08.2018 11:00:00 16,4 15,8 - - 21 11 - - SSE 1011,1 10 -
12.08.2018 10:00:00 16,1 15,0 18,7 17,7 22 12 - - S 1011,9 8 -
12.08.2018 09:00:00 16,5 16,3 - - 24 13 - - S 1011,6 8 -
12.08.2018 08:00:00 16,3 16,1 - - 21 11 - - S 1012,0 6 -
12.08.2018 07:00:00 16,5 16,0 - - 22 12 - - S 1012,6 10 -
12.08.2018 06:00:00 16,5 15,7 - - 21 11 - - SSW 1013,5 10 -
12.08.2018 05:00:00 16,6 15,9 - - 16 9 - - S 1014,0 10 -
12.08.2018 04:00:00 16,7 15,5 - - 16 9 - - S 1014,2 10 -
12.08.2018 03:00:00 16,6 15,3 - - 15 8 - - S 1015,0 10 -
12.08.2018 02:00:00 17,0 14,6 - - 18 10 - - SSW 1015,9 10 -
12.08.2018 01:00:00 17,2 14,5 - - 21 11 - - SSW 1016,7 10 0,0
12.08.2018 00:00:00 17,0 15,2 - - 16 9 - - S 1017,5 10 -
11.08.2018 23:00:00 16,8 14,8 - - 11 6 - - S 1018,2 10 -
11.08.2018 22:00:00 17,4 14,2 - - 8 4 - - S 1018,9 10 -
11.08.2018 21:00:00 17,9 14,7 - - 5 3 - - SW 1019,1 10 -
11.08.2018 20:00:00 18,8 15,5 - - 8 4 - - SW 1019,4 10 -
11.08.2018 19:00:00 19,0 15,6 - - 13 7 - - SSW 1019,9 10 -
11.08.2018 18:00:00 19,4 16,0 - - 16 9 - - S 1020,2 10 -
11.08.2018 17:00:00 19,3 15,4 - - 18 10 - - S 1020,7 10 -
11.08.2018 16:00:00 20,7 15,2 - - 22 12 - - SSE 1021,1 10 -
11.08.2018 15:00:00 19,9 15,5 - - 18 10 - - SE 1021,8 10 -
11.08.2018 14:00:00 20,4 15,1 - - 18 10 - - SSE 1022,5 10 -
11.08.2018 13:00:00 18,9 15,2 - - 16 9 - - S 1023,0 10 -
11.08.2018 12:00:00 18,6 15,2 - - 15 8 - - SSW 1023,4 10 -
11.08.2018 11:00:00 18,5 15,8 - - 18 10 - - S 1023,5 10 -
11.08.2018 10:00:00 17,4 15,7 18,2 17,7 16 9 - - SSW 1023,6 10 -
11.08.2018 09:00:00 16,7 15,9 - - 15 8 - - SW 1024,0 10 -
11.08.2018 08:00:00 16,4 15,8 - - 15 8 - - SW 1023,7 10 -
11.08.2018 07:00:00 16,1 15,6 - - 13 7 - - WSW 1023,5 10 -
11.08.2018 06:00:00 15,9 15,7 - - 9 5 - - WSW 1023,5 10 -
11.08.2018 05:00:00 15,6 15,3 - - 11 6 - - WSW 1023,6 10 -
11.08.2018 04:00:00 15,8 15,5 - - 13 7 - - WSW 1023,6 10 -
11.08.2018 03:00:00 15,5 15,3 - - 13 7 - - WSW 1023,8 10 -
11.08.2018 02:00:00 15,5 15,1 - - 11 6 - - W 1024,0 10 -
11.08.2018 01:00:00 15,6 15,1 - - 15 8 - - W 1024,3 10 -
11.08.2018 00:00:00 15,1 14,4 - - 15 8 - - WSW 1024,2 10 -

tt = temperature
td = dewpoint
tt -20cm = temperature -20cm
tt -100cm = temperature -100cm
ff = wind speed
fx = gusts
dd = wind direction
ppp = reduced air pressure
vv = visibility
rr = precipitation

Next stations